Date String (YYYY-MM-DD hh:mm:ss) UTC,Instrument flags,Ambient pressure (hPa),Sample flow (lpm),Bypass flow (lpm),Sample temperature (°C),Ambient temperature (°C),ASC tube jacket temperature (°C),LED temperature (°C),Box temperature (°C),Sample RH (%),Span deviation,Mass concentration (μg/m³),Mass concentration (μg/m³),Mass concentration (μg/m³)
DateTimeUTC,F1_M11,P_M11,Q1_M11,Q2_M11,T1_M11,T2_M11,T3_M11,T4_M11,T5_M11,U1_M11,ZSPAN_M11,X0_M11,X2_M11,X1_M11
2023-05-05 20:00:00,,0822.3,5.00,0.00,29.9,28.0,00.0,38.2,31.4,15.4,0000.0,0014.97,0004.84,0003.24
2023-05-05 20:01:00,,0822.3,5.00,0.00,29.9,28.2,00.0,38.2,31.4,15.3,0000.0,0015.18,0004.84,0003.25
2023-05-05 20:02:00,,0822.3,5.00,0.00,29.9,28.3,00.0,38.2,31.5,15.4,0000.0,0015.21,0004.84,0003.27
2023-05-05 20:03:00,,0822.3,4.99,0.00,29.9,28.4,00.0,38.2,31.5,15.4,0000.0,0015.28,0004.82,0003.27
2023-05-05 20:04:00,,0822.3,5.01,0.00,30.0,28.5,00.0,38.2,31.5,15.0,0000.0,0015.27,0004.84,0003.27
2023-05-05 20:05:00,,0822.2,5.00,0.00,30.0,28.6,00.0,38.2,31.6,15.1,0000.0,0016.19,0004.92,0003.28
2023-05-05 20:06:00,,0822.2,4.98,0.00,30.0,28.7,00.0,38.3,31.6,14.9,0000.0,0017.49,0004.93,0003.29
2023-05-05 20:07:00,,0822.2,5.00,0.00,30.0,28.8,00.0,38.3,31.7,14.8,0000.0,0017.84,0004.99,0003.32
2023-05-05 20:08:00,,0822.2,5.01,0.00,30.1,28.8,00.0,38.3,31.7,14.9,0000.0,0017.56,0005.04,0003.34
2023-05-05 20:09:00,,0822.2,4.99,0.00,30.1,28.3,00.0,38.3,31.7,14.8,0000.0,0017.58,0004.98,0003.35
2023-05-05 20:10:00,,0822.2,4.99,0.00,30.0,26.6,00.0,38.2,31.4,14.9,0000.0,0017.21,0004.99,0003.35
2023-05-05 20:11:00,,0822.1,5.00,0.00,30.0,26.2,00.0,38.1,31.3,14.9,0000.0,0017.19,0004.93,0003.35
2023-05-05 20:12:00,,0822.2,5.01,0.00,29.9,26.3,00.0,38.2,31.2,15.4,0000.0,0017.01,0004.93,0003.34
2023-05-05 20:13:00,,0822.1,5.01,0.00,29.8,26.6,00.0,38.2,31.1,15.8,0000.0,0016.92,0004.94,0003.32
2023-05-05 20:14:00,,0822.1,4.98,0.00,29.8,27.0,00.0,38.2,31.2,15.7,0000.0,0016.64,0005.01,0003.32
2023-05-05 20:15:00,,0822.0,5.00,0.00,29.8,27.3,00.0,38.2,31.2,15.7,0000.0,0015.51,0004.97,0003.31
2023-05-05 20:16:00,,0822.1,5.01,0.00,29.8,27.6,00.0,38.2,31.3,15.4,0000.0,0015.03,0004.92,0003.30
2023-05-05 20:17:00,,0822.1,4.98,0.00,29.8,27.8,00.0,38.2,31.3,15.3,0000.0,0013.66,0004.93,0003.31
2023-05-05 20:18:00,,0822.1,5.01,0.00,29.8,28.0,00.0,38.2,31.4,15.2,0000.0,0013.08,0004.94,0003.30
2023-05-05 20:19:00,,0822.1,5.01,0.00,29.9,28.2,00.0,38.2,31.4,15.3,0000.0,0013.40,0004.92,0003.28
2023-05-05 20:20:00,,0822.1,5.00,0.00,29.9,28.3,00.0,38.2,31.5,15.2,0000.0,0013.01,0004.96,0003.27
2023-05-05 20:21:00,,0822.1,4.99,0.00,29.9,28.4,00.0,38.2,31.5,15.1,0000.0,0012.69,0004.99,0003.26
2023-05-05 20:22:00,,0822.1,5.00,0.00,29.9,28.5,00.0,38.2,31.5,14.8,0000.0,0012.97,0005.07,0003.26
2023-05-05 20:23:00,,0822.1,5.01,0.00,30.0,28.6,00.0,38.2,31.6,14.9,0000.0,0013.61,0005.07,0003.27
2023-05-05 20:24:00,,0822.0,5.01,0.00,30.0,28.7,00.0,38.3,31.6,15.2,0000.0,0013.85,0005.10,0003.26
2023-05-05 20:25:00,,0822.1,4.99,0.00,30.0,28.7,00.0,38.3,31.6,14.9,0000.0,0014.70,0005.11,0003.24
2023-05-05 20:26:00,,0822.1,5.00,0.00,30.0,28.7,00.0,38.3,31.6,14.8,0000.0,0014.81,0005.08,0003.21
2023-05-05 20:27:00,,0822.0,5.02,0.00,30.0,28.8,00.0,38.3,31.7,14.9,0000.0,0014.09,0004.97,0003.17
2023-05-05 20:28:00,,0822.0,4.99,0.00,30.1,28.5,00.0,38.3,31.7,14.9,0000.0,0014.30,0004.92,0003.14
2023-05-05 20:29:00,,0821.9,5.00,0.00,30.0,26.7,00.0,38.2,31.4,15.1,0000.0,0014.13,0004.83,0003.10
2023-05-05 20:30:00,,0822.0,5.00,0.00,29.9,26.0,00.0,38.1,31.2,15.2,0000.0,0013.77,0004.78,0003.05
2023-05-05 20:31:00,,0822.0,5.00,0.00,29.8,26.1,00.0,38.1,31.1,15.2,0000.0,0013.53,0004.75,0003.01
2023-05-05 20:32:00,,0822.0,5.01,0.00,29.8,26.4,00.0,38.1,31.0,15.2,0000.0,0014.21,0004.80,0002.97
2023-05-05 20:33:00,,0822.0,4.99,0.00,29.7,26.8,00.0,38.1,31.1,15.2,0000.0,0015.37,0004.91,0002.94
2023-05-05 20:34:00,,0822.0,4.99,0.00,29.7,27.1,00.0,38.1,31.1,15.3,0000.0,0015.28,0004.94,0002.88
2023-05-05 20:35:00,,0822.0,5.00,0.00,29.7,27.3,00.0,38.1,31.2,15.3,0000.0,0015.16,0004.84,0002.82
2023-05-05 20:36:00,,0822.0,5.01,0.00,29.7,27.6,00.0,38.1,31.2,15.2,0000.0,0015.28,0004.76,0002.79
2023-05-05 20:37:00,,0821.9,5.01,0.00,29.7,27.8,00.0,38.1,31.3,15.3,0000.0,0015.14,0004.75,0002.78
2023-05-05 20:38:00,,0821.9,4.99,0.00,29.8,27.9,00.0,38.1,31.3,15.1,0000.0,0015.46,0004.75,0002.77
2023-05-05 20:39:00,,0822.0,4.99,0.00,29.8,28.0,00.0,38.1,31.3,15.3,0000.0,0015.55,0004.78,0002.77
2023-05-05 20:40:00,,0822.0,5.01,0.00,29.8,28.1,00.0,38.1,31.3,15.2,0000.0,0015.95,0004.80,0002.77
2023-05-05 20:41:00,,0821.9,5.01,0.00,29.8,28.2,00.0,38.1,31.4,15.4,0000.0,0016.34,0004.81,0002.78
2023-05-05 20:42:00,,0822.0,5.00,0.00,29.8,28.3,00.0,38.1,31.4,15.5,0000.0,0016.55,0004.83,0002.77
2023-05-05 20:43:00,,0822.0,4.99,0.00,29.8,28.3,00.0,38.2,31.4,15.3,0000.0,0016.57,0004.72,0002.75
2023-05-05 20:44:00,,0821.9,4.99,0.00,29.9,28.4,00.0,38.2,31.4,15.3,0000.0,0017.64,0004.69,0002.74
2023-05-05 20:45:00,,0822.0,5.01,0.00,29.9,28.5,00.0,38.2,31.5,15.0,0000.0,0017.24,0004.64,0002.74
2023-05-05 20:46:00,,0822.0,5.01,0.00,29.9,28.5,00.0,38.2,31.5,14.9,0000.0,0017.32,0004.66,0002.75
2023-05-05 20:47:00,,0821.8,5.00,0.00,29.9,28.5,00.0,38.2,31.5,15.1,0000.0,0016.86,0004.65,0002.77
2023-05-05 20:48:00,,0821.9,4.99,0.00,29.9,28.6,00.0,38.2,31.6,15.0,0000.0,0016.38,0004.60,0002.78
2023-05-05 20:49:00,,0821.8,5.01,0.00,30.0,28.6,00.0,38.2,31.6,15.1,0000.0,0016.16,0004.62,0002.79
2023-05-05 20:50:00,,0821.8,4.99,0.00,30.0,28.6,00.0,38.3,31.6,15.1,0000.0,0015.93,0004.63,0002.79
2023-05-05 20:51:00,,0821.8,5.00,0.00,30.0,28.6,00.0,38.3,31.6,15.2,0000.0,0015.55,0004.61,0002.79
2023-05-05 20:52:00,,0821.8,5.00,0.00,30.0,28.6,00.0,38.3,31.6,15.1,0000.0,0015.32,0004.57,0002.79
2023-05-05 20:53:00,,0821.8,5.01,0.00,30.0,28.7,00.0,38.3,31.7,15.2,0000.0,0015.13,0004.52,0002.79
2023-05-05 20:54:00,,0821.7,5.00,0.00,30.0,28.5,00.0,38.3,31.6,15.2,0000.0,0014.61,0004.50,0002.78
2023-05-05 20:55:00,,0821.7,5.00,0.00,30.0,26.9,00.0,38.2,31.4,15.2,0000.0,0011.70,0004.37,0002.77
2023-05-05 20:56:00,,0821.9,5.01,0.00,29.9,26.0,00.0,38.1,31.2,15.3,0000.0,0011.44,0004.34,0002.77
2023-05-05 20:57:00,,0821.9,5.00,0.00,29.9,26.0,00.0,38.1,31.1,15.3,0000.0,0011.95,0004.32,0002.77
2023-05-05 20:58:00,,0822.0,5.01,0.00,29.8,26.3,00.0,38.1,31.0,15.4,0000.0,0012.09,0004.28,0002.76
2023-05-05 20:59:00,,0821.8,4.99,0.00,29.7,26.6,00.0,38.1,31.0,15.4,0000.0,0012.38,0004.32,0002.77
